Regional Weather Roundup
Issued by NWS Boston, MA

Current Version | Previous Version | Text Only | Print | Product List | Glossary Off
Versions: 1 2 3 4 5 6 7 8 9 10 11 12 13 14 15 16 17 18 19 20 21 22 23 24 25 26 27

000
ASUS41 KBOX 290310
RWRBOX

REGIONAL WEATHER ROUNDUP
NATIONAL WEATHER SERVICE TAUNTON MA
1100 PM EDT FRI APR 28 2017

NOTE:  "FAIR" INDICATES FEW OR NO CLOUDS BELOW 12,000 FEET WITH NO
SIGNIFICANT WEATHER AND/OR OBSTRUCTIONS TO VISIBILITY.

MAZALL-290400-
EASTERN MASSACHUSETTS

CITY           SKY/WX    TMP DP  RH WIND       PRES   REMARKS
BOSTON         CLOUDY    71  58  63 SW6       30.00R
BEVERLY        PTCLDY    63  52  67 CALM      29.98S
LAWRENCE       CLOUDY    69  43  38 S3        30.00S
BEDFORD        MOCLDY    66  54  65 SW8       29.99S
BLUE HILL        N/A     70  56  61 SW12      30.01S
NORWOOD        CLOUDY    70  58  65 SW3       30.00R
MARSHFIELD     CLOUDY    68  61  77 SW8       30.00S
PLYMOUTH       MOCLDY    57  54  89 VRB3      30.03S
TAUNTON        CLOUDY    64  55  72 S7        30.02R
NEW BEDFORD    MOCLDY    61  55  81 SW7       30.02F
$$

MAZALL-290400-
CAPE COD AND THE ISLANDS

CITY           SKY/WX    TMP DP  RH WIND       PRES   REMARKS
FALMOUTH       CLOUDY    55  55 100 MISG      30.05S
HYANNIS        CLOUDY    59  58  96 SW10      30.02S
CHATHAM        FOG       56  56 100 SW8G17    30.05S VSB 1/2
PROVINCETOWN   CLOUDY    53  51  93 S10       30.02S
NANTUCKET      FOG       50  49  96 SW12      30.06R VSB 1/4
MARTHAS VNYRD  CLEAR     54  53  97 VRB7      30.04F FOG
$$

MAZALL-290400-
CENTRAL AND WESTERN MASSACHUSETTS

CITY           SKY/WX    TMP DP  RH WIND       PRES   REMARKS
WORCESTER      PTCLDY    68  52  56 SW12      30.03F
FITCHBURG      MOCLDY    63  53  70 CALM      30.01S
ORANGE         PTCLDY    58  53  84 CALM      30.01F
SPRINGFIELD    MOCLDY    69  57  67 S8        29.99S
WESTFIELD      PTCLDY    68  55  63 CALM      30.00S
NORTH ADAMS    MOCLDY    55  50  83 CALM      30.02F
PITTSFIELD     MOCLDY    58  49  72 CALM      30.02F
$$

RIZALL-290400-
RHODE ISLAND

CITY           SKY/WX    TMP DP  RH WIND       PRES   REMARKS
PROVIDENCE     PTCLDY    67  56  67 S7        30.02F
NEWPORT        PTCLDY    56  55  97 VRB3      30.03F
SMITHFIELD     CLEAR     67  56  67 SW3       30.02S
WESTERLY       CLEAR     59  56  89 SW3       30.05S
$$

CTZALL-290400-
CONNECTICUT

CITY           SKY/WX    TMP DP  RH WIND       PRES   REMARKS
BRADLEY INTL   PTCLDY    66  56  70 S6        30.01S
HARTFORD       CLEAR     66  55  67 S3        30.01S
BRIDGEPORT     CLEAR     62  53  72 W3        30.02F
DANBURY        PTCLDY    60  56  86 CALM      30.04F
GROTON         CLEAR     55  52  89 S3        30.03F
NEW HAVEN      CLEAR     58  52  80 CALM      30.02F
CHESTER        FAIR      64  55  72 SW7       30.03F
MERIDEN        CLEAR     61  55  81 CALM      30.02F
WILLIMANTIC    CLEAR     70  54  56 SW5       30.02F
OXFORD         CLEAR     66  52  59 SW5       30.04F
$$

MEZ002-015-021-024-NHZ003-005-008-011-012-014-VTZ005-008-290400-
NORTHERN NEW ENGLAND

CITY           SKY/WX    TMP DP  RH WIND       PRES   REMARKS
PORTLAND ME    MOCLDY    49  46  90 VRB3      29.96R
BANGOR ME      FOG       51  51 100 S6        29.94S VSB 1/8
CONCORD NH     PTCLDY    60  39  45 CALM      29.98S
MANCHESTER NH  MOCLDY    64  42  44 S7        29.98R
NASHUA NH      PTCLDY    63  47  55 CALM      30.00R
PORTSMOUTH NH  PTCLDY    68  34  28 SW5       29.96S
JAFFREY NH     PTCLDY    54  50  86 S6        30.03S
KEENE NH       PTCLDY    56  49  77 CALM      30.01S
BURLINGTON VT  MOCLDY    69  31  24 SW8       29.96F
MT. WASHINGTON MOCLDY    43  36  75 W58G64      N/A  WCI  29
$$

NYZ052-076-290400-
EASTERN NEW YORK

CITY           SKY/WX    TMP DP  RH WIND       PRES   REMARKS
ALBANY         MOCLDY    62  50  64 CALM      30.00S
NEW YORK CITY  PTCLDY    75  45  34 SW10      30.03S
$$

ANZALL-290400-
MARINE OBSERVATIONS

STATION/POSITION TIME  TEMP    WIND        PRES    VSBY  WAVE
                       AIR SEA DIR/SP/G                  HT/PER
                 (UTC) (F)     (DEG/KT/KT) (MB)    (MI)  (FT/S)
BOSTON BUOY      0150   58 49  200/  8/ 10 1014.9          3/ 8
BUZZARDS BAY     0200   51     230/ 16/ 17 1017.7R
NANTUCKET SOUND  0250      49              1017.4          1/ 3
MASS BAY-STELLWA 0204   55 46  240/  6/  6 1014.8R         3/ 9
ISLE OF SHOALS   0200   73     240/  9/  9 1014.6R
S OF BLOCK IS    0255      49                N/A           4/ 8
$$

......................KEY.........................
  SKY/WX - SKY CONDITION/PRESENT WEATHER
  TMP    - TEMPERATURE IN FAHRENHEIT
  DWPT   - DEWPOINT IN FAHRENHEIT
  RH     - RELATIVE HUMIDITY IN PERCENT
  WIND   - DIRECTION AND SPEED IN MPH
  PRES   - MEAN SEA LEVEL PRESSURE IN INCHES OF HG
  WCI    - WIND CHILL INDEX
  VSB    - VISIBILITY IN MILES
  HX     - HEAT INDEX
  TC     - TEMPERATURE IN CELSIUS
  VRB    - VARIABLE WIND DIRECTION
  N/A    - NOT AVAILABLE




USA.gov is the U.S. government's official web portal to all federal, state and local government web resources and services.